www.pogodaiklimat.ru

Погода и климат >> Архив погоды >> Германия >> Hamburg


АРХИВ ПОГОДЫ в Hamburg

Время (UTC), дата Ветер
(напр.,м/с)
 
Видим.   Явления Облачность Т
(С)
Тd
(С)
f
(%)
Тe
(С)
Тes
(С)
Комфортность P
(гПа)
Po
(гПа)
Тmin
(С)
Tmax
(С)
R
(мм)
R24
(мм)
S
(см)
02 14.05 В 3 40 км 3/0
[Ci fib]
+12.5 +9.5 82 +11 +11 тепло 1013.8 1012.0
01 14.05 СВ 4 40 км 3/0
[Ci fib]
+13.0 +9.6 80 +11 +11 тепло 1013.7 1011.9
03 14.05 В 3 40 км 1/0
[Ci fib]
+11.5 +9.0 85 +10 +10 по сезону 1014.0 1012.2
04 14.05 СВ 4-6
{6}
30 км ясно +12.1 +9.5 84 +10 +10 тепло 1014.2 1012.4
05 14.05 В 5 35 км 1/0
[Ac trans]
+13.6 +9.8 78 +12 +12 тепло 1014.4 1012.6
06 14.05 В 4 50 км 1/0
[Ac trans]
+16.1 +10.5 69 +15 +17 тепло 1014.6 1012.8 +11.5 +23.6
08 14.05 СВ 4-6
{6}
50 км ясно +20.5 +11.4 56 +22 +28 комфорт 1015.0 1013.2
07 14.05 СВ 4 50 км 1/0
[Ac trans]
+18.6 +11.6 64 +19 +23 тепло 1014.9 1013.1
09 14.05 В 4 50 км ясно +23.0 +12.4 51 +26 +34 жарко 1015.0 1013.3
10 14.05 СВ 5-7
{8}
50 км ясно +24.4 +11.3 44 +26 +33 жарко 1014.9 1013.2
11 14.05 В 7 50 км 1/1 1500 м
[Cu hum]
+24.9 +9.5 38 +26 +29 жарко 1014.9 1013.2
12 14.05 СВ 6 50 км 1/1 1500 м
[Cu hum]
+25.2 +11.0 41 +26 +32 жарко 1015.2 1013.5
14 14.05 В 7 50 км 1/1 1500 м
[Cu med, cong]
+25.6 +12.9 45 +27 +30 жарко 1015.1 1013.4
13 14.05 В 6 50 км 1/1 1500 м
[Cu hum]
+25.6 +13.0 46 +28 +32 жарко 1015.0 1013.3
15 14.05 СВ 7 40 км 1/1 1500 м
[Cu med, cong]
+25.2 +12.3 45 +27 +29 жарко 1015.2 1013.5
16 14.05 СВ 7 40 км 1/1 1500 м
[Cu med, cong]
+24.0 +11.0 44 +25 +27 комфорт 1015.2 1013.5
17 14.05 СВ 8 40 км 1/1 1500 м
[Cu med, cong]
+22.8 +10.3 45 +25 +25 комфорт 1015.3 1013.6
18 14.05 СВ 5 45 км 1/1 1500 м
[Cu med, cong]
+21.9 +10.1 47 +24 +24 комфорт 1015.4 1013.6 +16.1 +25.9
20 14.05 СВ 4-6
{7}
45 км ясно +17.9 +9.0 56 +18 +18 тепло 1016.5 1014.7
19 14.05 СВ 5 45 км 1/1 1500 м
[Sc diur, vesp]
+19.8 +9.7 52 +21 +21 комфорт 1015.9 1014.1
21 14.05 СВ 3 45 км ясно +16.1 +9.7 66 +16 +16 тепло 1017.0 1015.2
22 14.05 СВ 4-6
{6}
40 км ясно +14.9 +10.0 72 +14 +14 тепло 1017.2 1015.4
23 14.05 СВ 4-5
{6}
40 км ясно +13.7 +9.8 77 +12 +12 тепло 1017.6 1015.8
00 15.05 СВ 4 40 км ясно +13.4 +9.6 78 +12 +12 тепло 1017.4 1015.6
02 15.05 СВ 2-4
{4}
40 км ясно +11.6 +9.4 86 +10 +10 тепло 1017.7 1015.9
01 15.05 СВ 3-4
{5}
40 км ясно +12.2 +9.3 82 +11 +11 тепло 1017.6 1015.8
03 15.05 СВ 1 40 км 1/0
[Ci fib]
+11.0 +8.9 87 +11 +11 тепло 1017.5 1015.7
04 15.05 СВ 2 20 км 1/0
[Ci fib]
+11.0 +9.1 88 +10 +10 тепло 1017.6 1015.8
05 15.05 В 2 13 км 1/0
[Ci fib]
+12.1 +9.2 82 +11 +12 тепло 1017.5 1015.7
06 15.05 СВ 2 20 км 1/0
[Ci fib]
+13.9 +9.6 75 +13 +16 тепло 1017.9 1016.1 +10.6 +21.7
08 15.05 В 1 25 км 3/0
[Ci fib]
+19.1 +10.1 56 +21 +31 комфорт 1017.7 1015.9
07 15.05 СВ 1 20 км 3/0
[Ci fib]
+16.7 +10.4 66 +18 +24 тепло 1017.9 1016.1
09 15.05 С 2 30 км 4/0
[Ci fib]
+20.8 +9.4 48 +23 +34 комфорт 1017.8 1016.0
10 15.05 СВ 3 40 км 5/0
[Ci fib]
+22.7 +9.1 42 +24 +35 комфорт 1017.7 1015.9
11 15.05 СВ 4 40 км 6/1 1500 м
[Cu med, cong Ci fib]
+23.4 +7.9 37 +24 +33 комфорт 1017.3 1015.6
12 15.05 СВ 4 45 км 9/3 1500 м
[Cu med, cong Ci sp]
+22.9 +7.9 38 +24 +30 комфорт 1017.1 1015.3
14 15.05 СВ 6 45 км 9/1 2000 м
[Cu med, cong Ci sp]
+24.0 +7.3 34 +24 +27 комфорт 1016.0 1014.3
13 15.05 СВ 5 45 км 9/3 2000 м
[Cu med, cong Ci sp]
+23.5 +6.1 33 +24 +28 комфорт 1016.6 1014.9
15 15.05 СВ 6 45 км 9/1 2000 м
[Cu med, cong Ac trans Ci sp]
+23.4 +5.1 31 +24 +25 комфорт 1015.7 1014.0
16 15.05 СВ 6 45 км 9/1 2000 м
[Cu hum Ac As]
+22.1 +6.2 36 +23 +23 комфорт 1015.6 1013.8
17 15.05 СВ 5 45 км 9/1 2000 м
[Cu hum Ac As]
+20.9 +6.7 40 +22 +22 комфорт 1015.4 1013.6
18 15.05 СВ 4 45 км 9/3 2000 м
[Sc Ac As]
+20.3 +7.7 44 +21 +22 комфорт 1015.1 1013.3 +14.0 +24.0
20 15.05 С 3 45 км 9/3 2000 м
[Sc Ac As]
+19.0 +7.5 47 +20 +20 тепло 1015.3 1013.5
19 15.05 С 3 45 км 9/5 2000 м
[Sc Ac As]
+19.4 +7.8 47 +20 +20 тепло 1015.0 1013.2
21 15.05 СВ 4 45 км 9/0
[Ac As]
+18.4 +8.4 52 +19 +19 тепло 1015.3 1013.5
22 15.05 СВ 4 45 км 8/0
[Ac trans]
+16.6 +8.3 58 +16 +16 тепло 1015.6 1013.8
23 15.05 СВ 2 45 км 8/0
[Ac trans]
+15.7 +8.7 63 +16 +16 тепло 1015.4 1013.6
00 16.05 С 2 45 км 9/0
[Ac As]
+14.7 +8.9 68 +14 +14 тепло 1015.4 1013.6 0.0
02 16.05 С 2 40 км в посл. час дождь 10/0
[Ac As]
+14.4 +9.5 72 +14 +14 тепло 1015.0 1013.2
01 16.05 СВ 2 45 км 9/0
[Ac As]
+15.0 +9.2 68 +15 +15 тепло 1015.3 1013.5
03 16.05 С 2 35 км в посл. час дождь 9/3 1350 м
[Sc Ac As]
+14.1 +9.8 75 +14 +14 тепло 1014.9 1013.1 0.0
04 16.05 СЗ 1 20 км слабый дождь 10/4 1050 м
[Sc Ac As]
+13.1 +11.3 89 +13 +13 тепло 1014.9 1013.1
05 16.05 СЗ 1 25 км в посл. час дождь 9/4 900 м
[Sc Ac As]
+12.9 +11.5 91 +13 +13 тепло 1014.9 1013.1
06 16.05 СЗ 4 25 км в посл. час дождь 9/4 600 м
[Sc Ac As Ci sp]
+14.5 +10.9 79 +13 +14 тепло 1015.1 1013.3 +12.9 +20.4 0.3
08 16.05 СЗ 3 35 км 9/1 1500 м
[Cu med, cong Ac trans Ci sp]
+19.7 +11.9 61 +21 +25 комфорт 1014.9 1013.1
07 16.05 СЗ 2 30 км 9/3 1350 м
[Cu med, cong Ac As Ci sp]
+16.6 +11.3 71 +17 +19 тепло 1015.1 1013.3
09 16.05 СЗ 4 40 км 9/1 2000 м
[Cu med, cong Ac trans Ci sp]
+20.6 +10.3 52 +22 +26 комфорт 1014.7 1012.9
10 16.05 С 4 40 км 9/1 2000 м
[Cu med, cong Ac trans Ci sp]
+21.9 +11.3 51 +24 +29 комфорт 1014.5 1012.7
11 16.05 С 5 40 км 8/0
[Ac trans Ci sp]
+23.7 +10.4 43 +25 +31 комфорт 1014.4 1012.7
12 16.05 СВ 6 50 км 3/1 1500 м
[Cu med, cong Ac cast Ci fib]
+24.8 +9.4 38 +26 +30 жарко 1014.1 1012.4
14 16.05 СВ 6 50 км 3/1 1500 м
[Cu med, cong Ac cast Ci fib]
+25.4 +10.1 38 +26 +30 жарко 1013.9 1012.2
13 16.05 СВ 7 50 км 3/1 1500 м
[Cu med, cong Ac trans Ci fib]
+25.0 +8.7 35 +25 +28 комфорт 1013.9 1012.2
15 16.05 С 5 50 км 1/1 1500 м
[Cu med, cong Ac cast Ci fib]
+24.5 +9.8 39 +25 +29 комфорт 1014.0 1012.3
16 16.05 С 5 50 км 1/1 1500 м
[Cu med, cong Ac trans Ci fib]
+24.1 +9.4 39 +25 +27 комфорт 1013.7 1012.0
17 16.05 С 4 50 км 4/4 1500 м
[Cu med, cong Ac trans Ci fib]
+22.8 +10.5 46 +25 +26 комфорт 1014.0 1012.3
18 16.05 СЗ 7 50 км 5/1 1500 м
[Cu hum Ac trans Ci fib]
+21.7 +10.3 48 +23 +23 комфорт 1014.3 1012.5 +14.5 +25.7
20 16.05 СЗ 5 30 км 9/0
[Ac trans Ci sp]
+17.5 +11.1 66 +17 +17 тепло 1015.4 1013.6
19 16.05 СЗ 6 30 км 9/0
[Ac trans Ci sp]
+19.0 +13.3 70 +20 +20 тепло 1014.7 1012.9
21 16.05 СЗ 6 30 км 9/0
[Ac trans Ci sp]
+16.0 +10.6 70 +15 +15 тепло 1015.7 1013.9
22 16.05 СЗ 4 30 км 8/0
[Ac trans Ci fib]
+14.2 +9.9 75 +13 +13 тепло 1016.2 1014.4
23 16.05 СЗ 5 30 км 6/0
[Ac trans Ci fib]
+12.3 +9.1 81 +10 +10 тепло 1016.3 1014.5
00 17.05 СЗ 6 20 км 6/0
[Ac trans Ci fib]
+10.8 +8.3 85 +8 +8 по сезону 1016.5 1014.7
02 17.05 СЗ 5 18 км 9/9 300 м
[St]
+10.0 +7.9 87 +7 +7 тепло 1016.6 1014.8
01 17.05 СЗ 5 20 км 9/6 300 м
[St Ci fib]
+10.1 +8.1 87 +7 +7 по сезону 1016.6 1014.8
03 17.05 СЗ 6 18 км 9/9 360 м
[Sc]
+10.0 +7.6 85 +7 +7 по сезону 1016.5 1014.7
04 17.05 СЗ 5 15 км 9/9 400 м
[Sc]
+10.2 +7.5 83 +7 +7 по сезону 1016.3 1014.5
05 17.05 СЗ 7 15 км 9/9 420 м
[Sc]
+10.3 +7.1 81 +7 +7 по сезону 1016.3 1014.5
06 17.05 СЗ 7 15 км 9/9 300 м
[Sc]
+10.6 +7.0 78 +7 +7 по сезону 1016.5 1014.7 +9.9 +21.7
08 17.05 СЗ 7 20 км 9/9 480 м
[Sc]
+12.1 +7.7 74 +9 +9 по сезону 1016.8 1015.0
09 17.05 З 8 20 км 9/9 600 м
[Sc]
+12.3 +7.0 70 +9 +9 прохладно 1017.1 1015.3
10 17.05 СЗ 7 20 км 9/9 630 м
[Sc]
+12.6 +7.1 69 +10 +10 прохладно 1017.6 1015.8
11 17.05 З 7 20 км 9/9 630 м
[Sc]
+12.5 +7.5 72 +10 +10 прохладно 1017.6 1015.8
12 17.05 З 7 20 км 9/9 540 м
[Sc]
+13.0 +8.3 73 +10 +11 холодно 1017.6 1015.8
13 17.05 З 6 20 км 9/9 480 м
[Sc]
+12.5 +8.7 78 +10 +10 по сезону 1017.7 1015.9
14 17.05 З 6 18 км 10/9 450 м
[Sc]
+12.4 +8.8 79 +10 +10 прохладно 1017.5 1015.7
15 17.05 З 5 18 км в посл. час дождь 10/10 420 м
[Sc]
+12.0 +8.8 81 +10 +10 прохладно 1017.6 1015.8 0.0
16 17.05 З 6 18 км 10/10 420 м
[Sc]
+11.6 +8.9 83 +9 +9 по сезону 1017.6 1015.8
17 17.05 З 5 20 км в посл. час дождь 10/9 400 м
[Sc]
+11.7 +8.8 82 +9 +9 прохладно 1017.5 1015.7
18 17.05 З 6 15 км {дождь} 10/9 200 м
[Sc]
+11.4 +9.3 87 +8 +8 холодно 1017.2 1015.4 +10.7 +13.5 0.0
19 17.05 З 4 8000 м 10/9 270 м
[St]
+11.1 +9.3 89 +9 +9 по сезону 1017.7 1015.9
20 17.05 З 4 8000 м 10/9 270 м
[St]
+11.3 +9.3 87 +9 +9 по сезону 1018.1 1016.3
21 17.05 З 4 8000 м 10/9 270 м
[St]
+11.5 +9.5 88 +9 +9 по сезону 1018.0 1016.2
22 17.05 З 4 9000 м 10/9 330 м
[St]
+11.7 +9.3 85 +9 +9 тепло 1018.0 1016.2
23 17.05 СЗ 4 14 км 9/9 330 м
[St]
+11.7 +9.2 85 +9 +9 тепло 1017.9 1016.1
00 18.05 З 4 14 км 10/9 300 м
[St]
+11.2 +8.9 86 +9 +9 по сезону 1017.8 1016.0
01 18.05 З 4 12 км 10/9 300 м
[St]
+10.9 +8.8 87 +8 +8 тепло 1017.7 1015.9
02 18.05 З 3 12 км 10/9 300 м
[St]
+10.8 +8.9 88 +9 +9 тепло 1017.8 1016.0
03 18.05 СЗ 3 12 км 10/9 300 м
[St]
+10.9 +9.1 89 +9 +9 по сезону 1017.9 1016.1
04 18.05 СЗ 4 8000 м 10/9 300 м
[St]
+10.8 +8.9 88 +8 +8 тепло 1018.2 1016.4
05 18.05 СЗ 5 9000 м 10/9 270 м
[St]
+11.0 +8.9 87 +8 +8 по сезону 1018.3 1016.5
06 18.05 СЗ 4 12 км 9/9 300 м
[St]
+11.5 +9.2 86 +9 +9 по сезону 1018.7 1016.9 +10.8 +11.8
07 18.05 З 5 12 км 10/9 300 м
[St]
+11.5 +9.1 85 +9 +9 по сезону 1019.2 1017.4
08 18.05 З 5 12 км 10/9 300 м
[St]
+11.0 +8.4 84 +8 +8 прохладно 1019.5 1017.7
09 18.05 З 5 15 км 10/10 300 м
[St]
+11.2 +8.0 81 +9 +9 прохладно 1019.9 1018.1
10 18.05 З 5 20 км 10/10 480 м
[Sc]
+11.8 +7.9 77 +9 +9 прохладно 1020.2 1018.4
11 18.05 З 5 20 км 10/10 540 м
[Sc]
+12.2 +7.8 74 +10 +10 прохладно 1020.5 1018.7
12 18.05 З 5 25 км 10/9 540 м
[Sc]
+12.0 +7.8 75 +10 +10 холодно 1020.6 1018.8
13 18.05 СЗ 5 25 км 10/9 570 м
[Sc]
+12.8 +8.0 73 +11 +11 по сезону 1020.8 1019.0
14 18.05 СЗ 4 25 км 10/9 630 м
[Sc]
+12.4 +7.6 73 +11 +11 прохладно 1020.7 1018.9
15 18.05 СЗ 4 30 км 10/9 630 м
[Sc]
+12.6 +7.6 72 +11 +11 прохладно 1020.6 1018.8
16 18.05 З 4 30 км 10/9 630 м
[Sc]
+12.3 +7.6 73 +10 +11 по сезону 1020.7 1018.9
17 18.05 З 3 30 км 10/9 600 м
[Sc]
+11.8 +7.3 74 +10 +10 прохладно 1020.8 1019.0
18 18.05 З 4 25 км 9/9 600 м
[Sc]
+11.8 +7.3 74 +10 +10 прохладно 1020.9 1019.1 +10.9 +12.9
19 18.05 СЗ 3 25 км 9/9 630 м
[Sc]
+11.4 +7.3 76 +10 +10 тепло 1021.1 1019.3
20 18.05 С 2 25 км 9/9 630 м
[Sc]
+11.0 +7.5 79 +10 +10 по сезону 1021.6 1019.8
21 18.05 СЗ 2 25 км 9/9 700 м
[Sc]
+11.0 +7.3 78 +10 +10 по сезону 1021.7 1019.9
22 18.05 СЗ 2 25 км 9/9 900 м
[Sc]
+10.7 +7.4 80 +9 +9 тепло 1021.7 1019.9
23 18.05 СЗ 2 25 км 9/9 1500 м
[Sc]
+10.5 +7.2 80 +9 +9 тепло 1021.8 1020.0
00 19.05 СЗ 2 25 км 9/9 1000 м
[Sc]
+10.5 +7.3 81 +9 +9 по сезону 1021.6 1019.8
01 19.05 С 1 25 км 9/9 1500 м
[Sc]
+10.0 +7.4 84 +10 +10 тепло 1021.8 1020.0
02 19.05 СВ 1 20 км 9/9 1380 м
[Sc]
+9.9 +7.6 86 +9 +9 по сезону 1021.7 1019.9
03 19.05 СВ 1 20 км 9/9 900 м
[Sc]
+9.7 +7.8 88 +9 +9 по сезону 1021.7 1019.9
04 19.05 СВ 1 20 км в посл. час дождь 10/10 900 м
[Sc]
+10.3 +7.7 84 +10 +10 тепло 1022.0 1020.2
06 19.05 СВ 1 20 км в посл. час дождь 10/9 600 м
[Sc]
+10.6 +8.1 85 +10 +10 по сезону 1023.0 1021.2 +9.6 +11.8 0.0
07 19.05 В 2 25 км 10/9 800 м
[Sc]
+11.2 +8.2 82 +10 +10 по сезону 1023.3 1021.5
08 19.05 СВ 1 25 км 10/9 360 м
[Cu Sc]
+11.8 +8.3 79 +12 +12 по сезону 1023.5 1021.7
09 19.05 СВ 1 25 км 10/9 300 м
[Sc]
+12.9 +8.8 76 +13 +14 по сезону 1023.6 1021.8
11 19.05 СВ 3 25 км 9/8 660 м
[Cu hum]
+15.6 +9.4 67 +15 +17 по сезону 1023.4 1021.6
10 19.05 С 2 25 км 6/6 500 м
[Cu Sc]
+14.6 +9.4 71 +14 +20 по сезону 1023.4 1021.6
12 19.05 ЮВ 2 30 км 8/8 840 м
[Cu Sc]
+16.6 +9.1 61 +17 +20 тепло 1023.4 1021.6
13 19.05 В 3 30 км 8/8 840 м
[Cu Sc]
+16.8 +9.6 62 +17 +19 тепло 1023.4 1021.6
14 19.05 В 1 40 км 9/9 900 м
[Cu Sc]
+17.2 +9.0 59 +18 +20 тепло 1023.2 1021.4
15 19.05 СЗ 1 40 км 9/9 900 м
[Cu Sc]
+17.3 +9.0 58 +18 +19 тепло 1023.1 1021.3
17 19.05 СВ 2 35 км 3/3 1200 м
[Cu Sc]
+18.7 +9.5 55 +20 +21 тепло 1022.7 1020.9
16 19.05 С 2 40 км 6/6 1140 м
[Cu Sc]
+18.5 +9.6 56 +19 +21 тепло 1022.8 1021.0
18 19.05 С 2 35 км 1/1 1000 м
[Cu hum Ci fib]
+17.8 +10.2 61 +18 +19 тепло 1022.6 1020.8 +10.6 +19.0
19 19.05 СЗ 3 30 км 1/0
[Ci fib]
+15.9 +10.1 68 +15 +15 тепло 1022.8 1021.0
20 19.05 С 2 30 км 1/0
[Ci fib]
+13.1 +9.8 80 +12 +12 тепло 1023.4 1021.6
21 19.05 С 2 30 км 1/0
[Ci fib]
+12.7 +8.5 76 +12 +12 по сезону 1023.6 1021.8
23 19.05 В 3-4
{4}
30 км ясно +11.3 +8.2 81 +9 +9 тепло 1024.5 1022.7
22 19.05 В 4-5
{5}
30 км ясно +11.9 +8.4 79 +10 +10 тепло 1024.0 1022.2
00 20.05 В 3 30 км 3/3 2000 м
[Sc]
+12.7 +7.4 70 +11 +11 тепло 1024.9 1023.1
01 20.05 В 2-3
{3}
30 км ясно +10.7 +6.7 76 +9 +9 тепло 1025.1 1023.3
02 20.05 В 2-2
{3}
30 км ясно +10.1 +6.4 78 +9 +9 тепло 1025.3 1023.5
03 20.05 В 2 30 км ясно +8.7 +5.7 81 +7 +7 по сезону 1025.6 1023.7
05 20.05 В 2-3
{3}
40 км ясно +11.0 +4.6 65 +10 +11 тепло 1026.0 1024.2
04 20.05 В 3 40 км 1/1 2000 м
[Sc]
+7.8 +5.3 84 +5 +5 по сезону 1025.9 1024.0
06 20.05 ЮВ 4 45 км ясно +13.1 +3.0 50 +12 +14 тепло 1026.4 1024.6 +7.7 +18.1
07 20.05 ЮВ 5-7
{7}
45 км ясно +15.2 +3.1 44 +14 +17 тепло 1026.6 1024.8
08 20.05 В 7-10
{11}
50 км ясно +17.7 +3.1 38 +17 +19 тепло 1026.6 1024.8
09 20.05 В 7 50 км ясно +18.8 +0.2 29 +18 +22 тепло 1026.7 1024.9
11 20.05 В 5 50 км 1/0
[Ci fib]
+20.4 +2.3 30 +21 +29 комфорт 1026.2 1024.4
10 20.05 В 6-11
{13}
50 км ясно +20.0 +1.9 30 +20 +26 тепло 1026.5 1024.7
12 20.05 ЮВ 6 50 км 1/0
[Ci fib]
+21.2 +1.6 27 +21 +27 комфорт 1026.0 1024.2
13 20.05 В 7 50 км 1/0
[Ci fib]
+21.7 +2.0 27 +21 +25 комфорт 1025.4 1023.6
14 20.05 В 7 50 км 1/0
[Ci fib]
+22.1 +2.2 27 +22 +25 комфорт 1025.0 1023.2
15 20.05 В 6 50 км ясно +21.8 +2.0 27 +22 +25 комфорт 1024.6 1022.8
17 20.05 СВ 7-9
{9}
50 км ясно +21.0 +4.2 33 +21 +22 комфорт 1024.0 1022.2
16 20.05 В 7-11
{11}
50 км ясно +21.5 +3.6 31 +22 +23 комфорт 1024.1 1022.3
18 20.05 СВ 6 50 км ясно +18.7 +7.9 49 +19 +19 тепло 1023.9 1022.1 +13.2 +22.3
19 20.05 СВ 4-6
{9}
60 км ясно +16.9 +8.0 56 +16 +16 тепло 1024.0 1022.2
20 20.05 СВ 4-6
{6}
60 км ясно +15.3 +7.4 59 +14 +14 тепло 1024.3 1022.5
21 20.05 СВ 4 60 км ясно +13.3 +7.0 66 +12 +12 по сезону 1024.4 1022.6
23 20.05 В 4-5
{6}
60 км ясно +11.5 +5.6 67 +9 +9 тепло 1024.9 1023.1
22 20.05 СВ 4-6
{6}
60 км ясно +12.3 +6.5 68 +10 +10 тепло 1024.7 1022.9
00 21.05 В 3 60 км ясно +9.8 +5.0 72 +8 +8 по сезону 1024.9 1023.1

 

Местоположение метеостанции Hamburg (Германия): широта 53.63 долгота 10.00 высота над уровнем моря 16 м.

В архиве по умолчанию представлена погода в Hamburg за последнюю неделю. Архивные данные за месяц целиком и за предыдущие месяцы, начиная с января 2011 года, Вы можете получить, выбрав интересующий диапазон дат из раскрывающегося списка и нажав кнопку "Ввод!".


*Определитесь, кто Вы:
робот инопланетянин человек

Внимание! Время в таблицах - всемирное. Для получения местного времени необходимо прибавить поправку, которая в Hamburg равна 1 ч.

Смотрите также архив погоды в соседних городах и на ближайших метеорологических станциях:

Погода в Quickborn (Германия) (14 км)
Погода в Itzehoe (Германия) (48 км)
Погода в Luebeck-Blankensee (Германия) (51 км)
Погода в Boizenburg (Германия) (52 км)
Погода в Bremervoerde (Германия) (57 км)
Погода в Doernick (Германия) (64 км)
Погода в Soltau (Германия) (71 км)
Погода в Pelzerhaken (Германия) (76 км)
Погода в Fassberg (Германия) (80 км)
Погода в Elpersbuettel (Германия) (81 км)

Пояснения к столбцам:

Ветер - указаны скорость ветра в м/с - средняя за 10 мин, порывы в срок и между сроками (в фигурных скобках) и направление, откуда дует ветер: С - северный, СВ - северо-восточный, В - восточный, ЮВ - юго-восточный, Ю - южный, ЮЗ - юго-западный, З - западный, СЗ - северо-западный.
Видимость - горизонтальная дальность видимости в метрах или километрах. При видимости от 1 до 10 км при отсутствии осадков обычно наблюдается дымка, при ухудшении видимости до 1 км и менее - туман. В сухую погоду видимость может ухудшаться дымом, пылью или мглою.
Явления - указаны атмосферные явления, наблюдавшиеся в срок или в последний час перед сроком; фигурными скобками обозначены явления, наблюдавшиеся между сроками (за 1-3 часа до срока); квадратными скобками обозначены град или гололедные отложения с указанием их диаметра в мм.
Облачность - указаны через наклонную черту общая и нижняя облачность в баллах и высота нижней границы облаков в метрах; квадратными скобками обозначены формы облаков: Ci - перистые, Cs - перисто-слоистые, Cc - перисто-кучевые, Ac - высококучевые, As - высокослоистые, Sc - слоисто-кучевые, Ns - слоисто-дождевые, Cu - кучевые, Cb - кучево-дождевые. Подробнее классификацию облаков см. в Атласе облаков (PDF).
T - Температура воздуха - температура, измеренная на высоте 2 м над землей.
Td - Температура точки росы - температура, при понижении до которой содержащийся в воздухе водяной пар достигнет насыщения.
f - Относительная влажность воздуха - влажноcть воздуха, измеренная на высоте 2 м над землей.
Te - Эффективная температура - температура, которую ощущает одетый по сезону человек в тени. Характеристика душности погоды. При расчете учитывается влияние влажности воздуха и скорости ветра на теплоощущения человека.
Tes - Эффективная температура на солнце - температура, которую ощущает человек, с поправкой на солнечный нагрев. Характеристика знойности погоды. Зависит от высоты солнца над горизонтом, облачности и скорости ветра. Ночью, в пасмурную погоду, а также при ветре 12 м/с и более поправка равна нулю.
P - Атмосферное давление - приведенное к уровню моря атмосферное давление.
Po - Атмосферное давление - измеренное на уровне метеостанции атмосферное давление.
Tmin - Минимальная температура - минимум температуры воздуха на высоте 2 м над землей.
Tmax - Максимальная температура - максимум температуры воздуха на высоте 2 м над землей.
R - Количество осадков - Количество выпавших осадков за период времени, мм. При наведении курсора мыши на число - период времени, за который выпало указанное количество осадков.
R24 - Количество осадков - Количество выпавших осадков за 24 часа, мм.
S - Снежный покров - Высота снежного покрова, см. При наведении курсора мыши на число - состояние снежного покрова и степень покрытия местности в баллах.